Zurück zum Katalog

STARLINK-36371

AktivKommunikationVLEO
NORAD 67938·PAYLOAD·🇺🇸 United States

Gestartet Feb 24, 2026 von Vandenberg Space Force Base

Loading…

Nächste Überflüge (nächste 24 Stunden)

TLE

AktuellSource: CelesTrak SupGP

Epoche: Sep 15, 2026, 03:25 UTC

1 67938C 26037G   26258.14284722 -.00029822  00000+0 -10804-2 0  2581
2 67938  42.9999 200.9349 0001213 269.5235  85.8273 15.27586922    14

Verfolge STARLINK-36371 in Echtzeit mit AllMySat

Download on the App Store